Location: Maiden
(35.5760°N, 81.2120°W)
Time: 03:28:49
(UTC-04:00)

CARTOSAT-1 - Pass Details

Date: 02 August 2020
Orbit: 617 x 618 km, 97.8° (Epoch: 11 August)

Event Time Altitude Azimuth Distance (km) Brightness Sun altitude
Exits shadow 22:44:58 40° 48° (NE) 908 4.3 -24.0°
Drops below altitude 10° 22:48:25 10° 2° (N) 1,987 6.7 -24.5°
Sets 22:50:41 0° 356° (N) 2,896 7.8 -24.8°
